Location: Casteau
(50.5142°N, 4.0161°E)
Time: 19:37:48
(UTC+00:00)

Transit 2A - Pass Details

Date: 28 July 2021
Orbit: 594 x 964 km, 66.7° (Epoch: 27 September)

Event Time Altitude Azimuth Distance (km) Brightness Sun altitude
Rises 12:43:43 0° 321° (NW) 3,076 9.0 56.6°
Reaches altitude 10° 12:46:40 10° 340° (NNW) 2,225 8.3 56.4°
Maximum altitude 12:50:13 19° 24° (NNE) 1,791 7.8 56.2°
Drops below altitude 10° 12:53:59 10° 68° (ENE) 2,396 8.4 55.9°
Sets 12:57:19 0° 86° (E) 3,404 9.2 55.7°
